Regional Weather Roundup
Issued by NWS Green Bay, WI

Home | Current Version | Previous Version | Graphics & Text | Print | Product List | Glossary Off
Versions: 1 2 3 4 5 6 7 8 9 10 11 12 13 14 15 16 17 18 19 20 21 22 23 24 25 26 27 28 29 30 31 32 33 34 35 36 37 38 39 40 41 42 43 44 45 46 47 48 49 50

000
ASUS43 KGRB 092100
RWRGRB

NORTH-CENTRAL AND NORTHEAST WISCONSIN REGIONAL WEATHER ROUNDUP
NATIONAL WEATHER SERVICE GREEN BAY WI
300 PM CST FRI DEC 09 2016

WIZ005-009-010>012-018-019-092200-
NORTH CENTRAL WISCONSIN

CITY           SKY/WX    TMP DP  RH WIND       PRES   REMARKS
IRONWOOD       FLURRIES  14   7  73 W8        30.41R WCI   3
MANITOWISH WTR NOT AVBL
ARBOR VITAE    NOT AVBL
EAGLE RIVER    NOT AVBL
LAND O LAKES   NOT AVBL
RHINELANDER    CLOUDY    16   5  62 NW9       30.38R WCI   4
PHILLIPS       CLOUDY    15   7  68 W6        30.39R WCI   7
ANTIGO         NOT AVBL
TOMAHAWK       NOT AVBL
MERRILL        NOT AVBL
$$

WIZ013-073-092200-
NORTHEAST WISCONSIN

CITY           SKY/WX    TMP DP  RH WIND       PRES   REMARKS
IRON MOUNTAIN  MOCLDY    21   5  50 NW8       30.34S
MARINETTE      CLOUDY    25   8  48 NW8       30.40R
$$

WIZ017-030-035>037-045-092200-
CENTRAL WISCONSIN

CITY           SKY/WX    TMP DP  RH WIND       PRES   REMARKS
MEDFORD        NOT AVBL
WAUSAU         CLOUDY    19   6  57 W14G24    30.41R WCI   6
MOSINEE        MOCLDY    18   9  68 NW12      30.43R WCI   5
MARSHFIELD     CLOUDY    17   8  67 W6        30.42S WCI   9
WISC RAPIDS    SUNNY     21   8  57 NW8       30.46R
STEVENS POINT  NOT AVBL
WAUPACA        NOT AVBL
SHAWANO        NOT AVBL
CLINTONVILLE   PTCLDY    23   7  50 NW14      30.43R
WAUTOMA        MOSUNNY   21   8  57 W8        30.47R
$$

WIZ038-039-048-051-092200-
FOX VALLEY

CITY           SKY/WX    TMP DP  RH WIND       PRES   REMARKS
NWS GREEN BAY  MOCLDY    26  11  52 NW7       30.42R
APPLETON       PTCLDY    25   7  46 W14G21    30.41R
OSHKOSH        CLEAR     24   9  52 W12       30.44R
FOND DU LAC    CLEAR     24   7  48 W15       30.45R
$$

WIZ022-050-052-092200-
EAST CENTRAL WISCONSIN

CITY           SKY/WX    TMP DP  RH WIND       PRES   REMARKS
EPHRAIM        NOT AVBL
WASHINGTON ISL NOT AVBL
STURGEON BAY   FLURRIES  25  10  53 W10G16    30.39R
MANITOWOC      NOT AVBL
SHEBOYGAN      MOCLDY    25   9  50 W16       30.43S
$$

LMZ563-521-522-541>543-092200-
LAKESHORE

STATION/POSITION TIME  TEMP    WIND        PRES    VSBY  WAVE
                       AIR SEA DIR/SP/G                  HT/PER
                 (UTC) (F)     (DEG/KT/KT) (MB)    (MI)  (FT/S)
SHEBOYGAN LKSHOR 2000   24     280/ 13/ 17 1031.2R
KEWAUNEE LKSHORE 2030   24     280/  6/ 11 1028.9R
NORTHPORT PIER   2049   26     300/  8/ 16 1028.1R
SISTER BAY LKSHO 2020   27     330/ 17/ 19   N/A
CHAMBERS ISLAND  2040   26     260/  7/ 14 1028.1R
MENOMINEE LKSHOR 2030   25     270/  8/ 14 1028.0R
$$




USA.gov is the U.S. government's official web portal to all federal, state and local government web resources and services.